Location: Brno
(49.2000°N, 16.6333°E)
Time: 04:06:53
(UTC+01:00)

ISS - Pass Details

Date: 25 January 2019
Orbit: 403 x 411 km, 51.6° (Epoch: 20 February)

Event Time Altitude Azimuth Distance (km) Brightness Sun altitude
Rises 18:27:33 0° 233° (SW) 2,327 1.1 -17.7°
Reaches altitude 10° 18:29:39 10° 229° (SW) 1,471 -0.2 -18.0°
Maximum altitude 18:32:52 51° 152° (SSE) 524 -3.5 -18.5°
Enters shadow 18:32:58 51° 143° (SE) 526 -3.5 -18.6°
